Featured Flight

MET3002 - Chicago to Detroit

Boeing 737-200
711MT
0 hrs 45 mins
199 nm
Scheduled - Daily

Bid/PiRep Status

Bid was submitted on Dec 28 2016.

PiRep # 74494: Approved by Dave Nichols on December 30th, 2016 7:54 UTC

Departure

Departing from
Chicago (MDW)
Departure gate
Scheduled Departure
GMT 1330
Local 0830
METAR KMDW 270753Z 06004KT 10SM BKN033 14/12 A2985 RMK AO2 SLP105 T01390122 $
TAF KMDW 270543Z 2706/2806 03007KT P6SM FEW006 OVC030 FM270700 02004KT 6SM BR FEW006 FM270900 02004KT 3SM BR SCT005 FM271500 08006KT P6SM SCT150 FM271900 08010KT P6SM SCT040 FM280200 10005KT P6SM SCT080 BKN200

Route Map

Planning Resources

KMDW-GIJ-LFD-DXQ-MDTW
CISRO2.GIJ LFD.MIZAR3
KMDW MDW4 LEWKE GIJ LFD MIZAR3 KDTW
KMDW GIJ J554 CRL KDTW
KMDW-GIJ-BENJO-CRL-KDTW
Route:
OFP Layout:
Units:
Detailed Navlog:
ETOPS Planning:
Plan Stepclimbs:
Runway Analysis:
Include NOTAMS:
FIR NOTAMS:
Flight Maps:

Popularity

Hub Current Bids PiReps this month Total PiReps
KMCI 0 0 3
KLAX 0 0 0
KBOS 0 0 0